Theta_e
314 314 314 314 313 313 313 313 314 313 313 313 313 314 313 313 313 313 314 314 314 314 314 314 314 314 315 311 306 321 324 322 318 314 309 307 305 305 301 302 302 301 302 303 304 304 305
314 314 314 314 313 313 313 313 313 314 314 314 313 313 313 313 313 314 314 314 315 314 314 314 314 314 314 305 313 315 317 314 313 312 310 309 306 308 304 303 302 303 302 302 303 303 304
314 314 314 313 313 312 313 313 313 313 314 314 314 313 313 313 313 314 315 315 314 314 315 315 315 315 311 308 315 316 315 313 315 312 308 311 310 306 306 302 306 304 299 302 302 302 301
314 314 313 313 312 312 312 313 313 313 314 314 314 314 313 313 313 314 314 314 315 317 315 315 316 317 308 315 318 315 316 314 316 316 313 312 312 308 305 307 303 299 300 294 300 301 302
313 313 313 313 313 312 312 312 312 312 313 314 313 313 313 313 313 314 314 314 317 317 316 316 317 314 307 312 311 314 315 310 313 314 314 313 310 305 305 300 297 299 293 295 296 302 301
313 313 312 312 312 312 312 312 312 312 312 313 313 312 312 312 313 313 313 313 318 316 317 319 315 308 311 307 311 312 315 312 309 310 309 308 306 301 301 298 290 293 293 295 294 299 300
313 313 312 311 311 312 312 312 312 312 312 312 313 312 311 311 312 313 313 316 311 310 313 305 305 305 307 311 313 309 312 310 309 307 301 305 298 294 298 301 300 298 296 295 297 300 298
314 313 312 312 311 311 311 312 312 312 312 312 311 311 312 312 312 312 315 310 309 310 302 310 308 308 310 311 304 309 312 304 304 299 303 300 295 301 301 301 298 297 295 295 298 300 298
315 314 313 312 312 311 311 311 311 311 311 311 311 311 311 312 312 312 313 311 316 314 304 304 306 305 306 308 304 305 307 305 302 299 299 295 299 303 301 299 297 297 295 294 295 299 300
316 315 313 312 311 311 311 311 311 311 311 310 310 310 311 311 308 314 312 315 317 316 301 297 300 305 307 308 303 310 310 306 302 298 298 299 303 300 298 297 297 293 299 297 296 294 290
316 316 314 313 312 311 310 310 310 310 310 310 310 310 310 309 315 310 312 317 317 314 291 299 301 310 308 304 305 305 310 306 299 300 298 297 297 296 296 298 299 295 300 298 297 295 292
316 315 314 313 312 311 310 309 309 309 309 309 309 310 310 314 318 313 316 317 315 299 287 296 302 302 302 304 303 306 305 308 306 300 301 299 304 300 300 301 300 301 298 298 297 293 286
315 315 315 314 313 311 310 309 309 309 309 309 309 309 310 315 307 314 317 313 298 290 299 295 297 301 300 299 300 301 300 298 295 290 293 297 299 302 303 298 300 298 293 285 284 285 285
314 315 315 314 313 312 310 309 309 308 308 308 307 306 313 314 314 316 314 304 291 294 295 300 299 300 297 299 299 299 298 295 299 297 293 291 289 297 301 298 294 294 293 285 279 283 287
315 314 315 315 313 312 310 309 308 307 307 306 306 318 316 312 315 316 308 295 293 296 298 296 298 295 296 298 297 296 297 296 297 298 290 290 290 299 298 299 298 291 288 295 287 291 287
315 315 315 315 313 312 311 310 309 308 307 305 311 313 313 313 317 314 303 291 295 299 300 298 293 296 292 295 295 294 294 298 296 299 301 292 285 295 298 299 299 294 297 286 287 281 280
315 315 315 314 314 312 311 310 309 308 306 305 312 307 311 313 316 307 297 296 297 299 301 297 295 295 295 292 293 291 292 297 299 299 298 293 285 290 294 293 292 292 288 290 292 290 284
315 314 314 314 314 313 311 310 308 307 305 309 311 302 312 313 302 302 298 298 297 299 302 300 300 298 295 294 292 290 290 294 299 297 289 294 287 286 290 297 299 296 294 293 288 286 290
315 315 314 314 314 313 311 309 308 307 306 306 307 306 314 312 297 297 300 298 299 298 298 298 298 300 299 294 288 292 295 300 300 296 288 291 287 285 289 295 293 291 294 296 294 294 288
315 315 315 314 314 313 311 309 307 307 306 308 308 302 307 307 305 299 297 298 296 300 299 300 299 300 297 295 296 292 293 296 299 298 300 297 288 286 286 290 293 289 291 295 294 288 289
314 314 315 314 314 314 312 309 307 307 306 308 311 305 304 298 300 300 300 298 296 295 298 301 299 298 297 291 293 292 295 298 298 299 296 293 286 291 293 292 293 294 294 294 291 292 288
314 314 314 314 314 314 312 308 307 307 305 311 305 304 305 303 302 300 298 297 294 295 297 296 297 298 299 293 294 291 295 294 292 294 292 295 287 292 292 296 296 292 294 293 293 293 292
313 313 314 314 314 314 313 308 306 306 305 309 312 310 304 301 303 300 298 296 295 298 299 300 300 299 298 299 301 302 303 302 300 292 290 291 289 287 289 294 294 287 287 287 289 291 286
312 313 313 313 313 313 313 308 306 305 304 308 309 303 303 300 302 300 297 297 296 297 297 301 303 300 303 307 307 306 304 302 300 297 294 291 290 291 290 294 284 289 289 288 286 288 289
312 312 312 313 313 313 313 309 306 305 305 305 304 303 299 295 303 300 298 296 299 300 299 301 303 307 309 304 298 295 295 297 296 298 296 296 291 288 287 289 292 291 286 284 283 284 292
311 311 311 311 312 313 313 312 307 305 305 304 303 304 299 294 303 301 298 298 296 296 299 302 307 310 308 300 296 288 287 291 289 292 298 297 297 291 290 285 284 282 287 290 290 286 290
310 311 311 311 312 312 313 314 308 306 305 303 302 307 299 293 305 304 298 296 300 298 298 301 303 303 306 296 292 288 288 293 288 286 287 289 289 287 289 287 287 286 288 294 286 284 288
309 309 310 310 310 311 312 313 310 306 305 303 305 306 299 295 301 305 303 299 300 300 297 303 301 301 300 291 291 291 290 291 289 291 287 285 284 286 288 286 283 290 289 283 286 288 293
308 308 309 310 310 310 312 312 312 307 306 305 299 303 304 297 301 308 306 305 303 304 301 303 301 301 301 294 293 293 291 290 288 286 294 287 288 285 285 285 291 291 285 289 294 293 294
Wind_Speed
17 17 18 18 18 18 18 19 19 19 19 20 20 19 19 18 17 16 15 14 15 15 14 13 12 11 11 11 11 12 10 10 11 10 9 9 10 12 15 13 9 15 16 19 19 20 26
17 17 18 18 18 19 19 20 20 19 19 19 19 19 19 17 16 16 15 14 14 14 14 12 10 8 10 9 5 7 9 7 10 9 7 9 7 10 12 15 15 16 17 16 14 18 22
17 18 18 18 19 19 20 21 21 21 20 20 19 19 20 18 17 16 15 15 14 12 11 9 8 9 10 5 1 4 8 10 8 8 12 9 8 11 12 13 11 12 18 19 20 21 22
17 18 18 18 19 20 20 21 22 22 20 20 20 19 20 19 17 16 15 15 12 8 5 5 7 11 10 6 3 9 8 10 14 12 12 13 10 15 16 15 17 19 19 19 19 24 22
17 18 18 18 18 19 20 21 22 23 22 21 21 20 20 20 18 16 14 15 8 4 5 7 9 10 10 7 11 4 13 10 11 9 11 11 11 16 16 17 16 17 17 21 22 21 14
17 18 18 18 18 18 19 20 21 22 24 23 21 21 21 20 18 17 14 9 6 7 10 9 7 8 8 5 7 10 16 9 12 12 14 15 15 16 17 15 16 19 18 17 15 15 14
17 18 19 20 20 19 19 20 21 22 23 24 23 22 22 20 17 16 16 7 6 10 12 11 13 15 14 5 8 16 6 9 10 13 15 17 15 15 22 19 19 21 24 25 22 20 12
17 18 19 20 21 20 20 21 22 23 23 24 25 24 22 19 17 15 10 8 11 9 13 10 6 8 11 7 15 17 1 8 14 16 16 17 20 24 22 22 22 23 25 26 25 21 20
17 17 18 20 21 21 22 22 23 24 24 24 25 23 22 18 14 7 6 7 9 8 9 0 4 8 6 5 15 15 1 9 17 20 21 20 22 21 18 21 22 21 24 24 25 24 20
16 17 19 19 20 21 23 24 25 25 26 26 26 24 21 17 5 7 4 9 10 3 8 4 2 4 8 13 15 10 12 15 16 20 20 19 21 17 20 24 22 25 21 25 17 20 17
17 18 18 19 21 22 23 24 25 26 27 27 27 25 19 7 11 8 9 10 7 5 5 8 4 5 14 16 17 8 6 12 20 22 17 24 25 25 21 21 20 17 14 16 19 21 19
20 20 19 19 21 22 23 24 26 26 27 28 27 24 18 6 10 10 10 7 7 9 5 9 9 18 17 11 11 15 12 12 15 20 21 27 26 24 26 23 23 13 15 17 18 14 17
20 20 18 20 21 23 24 25 27 27 27 30 27 21 12 8 9 12 9 9 9 5 13 10 21 21 18 17 22 13 14 17 11 6 16 17 23 23 23 20 19 16 10 6 8 12 21
18 18 17 17 20 22 24 25 27 29 29 31 29 18 9 7 11 9 9 12 10 13 13 18 16 22 11 21 17 21 20 17 15 11 8 12 12 5 10 14 11 11 12 7 9 15 18
17 18 18 17 19 21 23 26 28 29 31 31 31 7 5 9 9 7 11 6 9 13 15 15 20 15 14 20 21 22 21 14 6 5 4 8 9 5 15 18 13 2 11 17 16 20 18
15 16 17 17 18 19 22 25 28 30 32 32 10 7 4 11 7 8 7 1 7 7 13 14 18 13 24 22 20 23 15 9 11 6 11 3 14 16 19 9 17 13 2 4 4 7 15
13 14 15 16 17 17 20 22 26 29 33 36 7 7 8 12 6 8 5 7 12 14 12 10 17 22 19 16 19 19 8 18 7 9 11 6 7 13 15 11 16 6 4 10 12 11 11
13 13 14 15 15 15 17 19 22 25 31 14 7 6 8 11 9 9 9 9 5 12 15 15 12 16 16 18 14 8 11 13 7 7 4 6 5 9 22 23 21 16 19 18 11 13 14
13 12 13 14 15 13 14 17 19 23 19 10 9 7 6 10 7 8 12 16 5 11 13 14 14 16 18 18 9 11 19 16 20 6 3 2 5 8 11 3 11 3 11 21 17 16 17
15 14 14 14 15 14 12 14 18 21 20 9 7 6 6 6 4 9 13 12 14 10 12 10 17 17 14 19 17 14 24 9 13 15 14 7 6 12 14 20 12 5 13 22 17 12 15
14 15 15 14 14 13 11 12 16 20 23 8 5 6 5 8 11 14 15 13 15 17 8 16 16 21 24 19 25 17 21 29 21 4 4 3 8 15 19 23 24 25 19 19 14 17 16
15 15 15 15 14 13 10 10 14 16 25 7 7 6 6 13 12 13 10 13 16 16 19 17 17 22 24 18 17 29 26 20 5 4 3 4 7 15 24 19 16 11 4 14 13 14 13
16 17 16 15 15 12 10 7 9 12 12 4 5 3 7 11 15 14 12 15 21 19 9 17 21 22 23 24 25 29 21 21 5 3 3 4 5 6 9 10 10 3 6 12 13 10 3
16 16 16 16 15 13 11 8 6 6 8 6 6 6 8 11 14 16 17 16 20 20 20 20 14 18 19 27 28 25 6 8 5 8 7 7 11 7 11 17 3 8 10 13 10 15 8
17 17 17 16 15 14 12 10 8 4 5 6 5 5 5 8 15 14 18 18 17 16 16 16 17 18 16 20 17 11 4 5 6 3 10 9 6 6 7 14 2 10 12 9 5 7 9
16 17 16 17 17 15 13 11 11 8 6 4 5 5 4 7 7 16 16 15 14 13 12 16 14 15 13 11 10 7 6 13 6 9 8 16 10 7 8 9 5 10 23 23 1 4 24
17 17 17 17 16 16 16 11 14 11 9 5 3 1 2 6 10 10 13 13 11 11 10 16 19 11 9 12 7 8 7 11 7 9 11 11 9 9 10 5 5 17 25 27 5 10 24
16 17 17 17 17 17 16 14 15 13 11 6 2 3 3 6 15 17 14 15 13 11 11 12 11 7 5 8 6 8 5 6 7 12 4 5 8 7 8 6 6 24 14 10 13 16 15
17 17 17 17 17 16 15 14 15 16 13 11 4 5 6 7 12 19 21 20 24 19 11 5 11 10 5 3 3 5 8 3 9 4 5 2 5 7 6 5 10 15 8 14 13 11 12
Wind_Direction
18 14 12 8 3 359 356 353 350 346 342 340 340 337 337 333 328 324 320 314 309 306 300 293 290 295 282 227 71 122 161 206 253 264 268 287 278 273 265 272 274 267 271 274 271 263 271
16 12 9 6 1 357 354 351 347 344 340 338 336 337 336 331 327 324 318 308 302 299 292 281 274 283 256 256 81 154 211 239 258 258 269 283 298 342 297 274 275 280 288 285 280 282 265
13 10 7 4 360 356 351 348 346 343 339 337 334 332 333 330 325 321 317 312 307 295 280 264 249 247 265 19 335 223 232 252 281 277 279 253 284 288 301 283 266 280 269 270 256 251 252
11 7 5 1 358 354 350 347 345 342 338 337 334 332 330 327 323 318 317 317 308 282 247 229 222 246 280 119 300 243 247 249 237 252 264 284 284 277 274 282 276 265 262 266 262 238 235
8 6 2 359 354 351 347 344 341 340 338 337 333 331 328 324 320 315 316 313 288 224 207 189 218 232 275 124 234 294 308 285 308 216 250 266 259 269 268 255 258 242 252 256 267 230 215
4 2 360 358 355 350 346 343 339 337 337 337 333 330 327 323 317 312 305 278 192 186 210 215 261 249 241 270 340 311 266 225 267 275 226 223 239 247 239 240 259 277 276 269 253 262 248
1 359 358 356 354 349 345 342 339 338 335 335 335 331 327 322 315 308 304 190 231 189 245 301 298 288 281 303 284 279 9 299 243 250 259 255 231 250 261 267 262 273 277 279 281 287 257
358 356 354 353 351 348 344 342 340 338 335 334 334 332 329 320 312 301 274 324 16 305 305 277 292 262 264 287 282 309 35 247 239 249 276 268 256 243 252 262 271 269 267 267 273 261 265
356 352 351 350 346 345 344 342 341 338 336 336 334 332 328 321 314 271 308 16 331 323 270 144 272 297 319 297 297 317 266 285 278 281 281 273 268 273 258 248 260 267 263 265 273 272 262
352 350 351 347 344 345 344 342 341 339 338 337 336 333 327 323 286 335 51 344 317 328 267 77 160 78 288 296 289 335 270 286 286 283 296 286 287 280 274 264 259 255 248 261 298 286 271
352 350 350 347 344 343 342 340 340 339 337 336 337 333 325 313 314 356 340 328 343 217 270 16 359 332 268 312 312 286 169 259 277 294 292 275 282 284 269 264 270 294 286 277 257 257 271
352 352 349 346 343 341 340 339 339 339 337 334 335 331 326 234 238 5 330 332 238 232 10 332 335 335 321 321 328 307 284 269 284 289 275 270 265 255 253 260 260 251 249 264 274 267 251
353 353 347 346 341 340 338 339 337 338 337 334 331 326 302 296 335 329 318 255 260 352 342 352 332 332 303 351 334 329 305 299 272 273 274 296 279 266 228 247 248 238 257 232 233 219 244
349 348 345 343 338 339 339 339 338 336 338 335 327 322 215 273 331 319 291 266 284 4 347 334 324 306 312 347 345 331 315 301 287 263 271 286 298 39 20 266 295 272 217 246 265 244 251
343 346 342 337 334 339 340 340 339 338 338 338 312 216 259 5 331 298 272 316 356 347 337 325 315 310 328 341 334 346 322 306 357 358 273 313 265 326 303 285 248 3 226 254 260 263 272
338 340 339 334 333 339 338 341 339 339 337 334 317 286 42 339 326 275 281 253 328 337 324 318 306 316 322 338 333 342 314 320 344 342 18 310 286 279 288 291 258 198 221 230 199 246 254
329 331 334 333 329 335 335 340 339 339 337 322 262 288 42 339 288 280 331 326 325 339 336 326 313 309 323 326 330 321 281 308 6 336 339 277 225 283 288 240 237 175 215 233 268 251 271
319 320 323 325 327 328 330 336 339 341 338 327 298 306 31 332 288 358 3 338 331 317 316 312 294 307 319 332 306 291 273 286 27 332 253 249 270 274 276 273 270 223 231 227 245 256 259
306 310 312 317 323 324 327 334 339 338 358 321 321 298 110 340 7 352 332 321 270 299 315 309 301 309 320 314 299 246 290 292 323 295 241 201 239 286 293 193 27 281 246 243 239 260 258
306 310 305 309 318 323 322 335 336 334 337 311 306 325 350 291 172 346 338 312 322 331 321 302 300 296 297 305 319 287 289 304 280 307 300 238 232 245 276 299 312 236 247 255 230 243 257
300 305 307 305 311 317 316 330 333 333 328 303 340 2 28 311 329 327 304 309 309 327 333 311 314 321 322 324 311 308 303 312 318 340 331 243 265 269 264 270 269 269 243 254 233 242 244
302 305 306 306 308 312 305 319 335 336 327 254 327 341 329 291 316 300 307 338 327 326 318 313 303 324 317 312 301 315 313 301 290 325 278 229 275 298 286 277 261 224 298 353 314 302 290
306 307 308 306 304 305 301 291 324 338 332 308 8 288 274 295 324 315 335 326 315 315 307 307 310 305 316 327 320 300 286 275 226 206 252 271 293 292 275 327 289 123 29 341 294 268 286
308 307 306 306 303 301 298 248 280 330 334 314 353 299 290 300 321 327 314 306 316 318 309 301 316 317 334 326 306 292 278 245 212 213 214 304 310 266 286 312 338 136 54 340 295 284 255
307 309 307 305 302 298 285 232 237 244 289 295 316 300 314 292 308 304 328 316 314 303 306 313 346 341 342 315 309 351 306 263 330 339 222 285 280 285 296 321 133 141 357 318 315 285 334
307 309 310 308 304 300 287 235 222 220 229 262 270 291 283 310 307 330 313 295 316 321 316 323 329 346 344 314 336 335 326 326 334 341 355 328 284 256 308 312 334 358 337 321 131 237 358
311 311 310 308 307 306 303 270 217 214 216 230 268 74 274 273 274 313 305 317 298 324 303 313 345 318 17 335 338 346 318 330 340 334 339 335 346 320 317 304 96 358 338 314 334 339 323
314 314 314 309 306 305 302 292 209 208 216 209 279 205 226 265 293 286 284 289 284 280 293 345 323 8 351 2 331 351 319 337 307 326 338 316 320 339 327 315 352 3 341 13 303 302 318
318 319 318 316 307 302 296 288 212 195 207 210 256 200 221 244 279 308 286 273 264 273 292 271 299 298 339 353 326 303 311 331 315 308 319 326 3 315 321 335 350 331 322 310 334 338 16